This is the latest recevied weather packets stored in our database for station/object K6CED. If no packets are shown the sender has not sent any weather packets the latest 10 day(s).
| Time | Temp. | Humidity | Pressure | Rain* | Wind** | Luminosity | Snow |
|---|---|---|---|---|---|---|---|
| 1777336959 | 18.33° C | 45% | 1017.2 hPa | 0 mm | - | 187 W/m² | - |
| 1777336658 | 18.89° C | 45% | 1017.2 hPa | 0 mm | - | 205 W/m² | - |
| 1777336355 | 18.89° C | 44% | 1017.2 hPa | 0 mm | - | 223 W/m² | - |
| 1777336052 | 18.89° C | 43% | 1017.2 hPa | 0 mm | - | 240 W/m² | - |
| 1777335749 | 19.44° C | 42% | 1017.2 hPa | 0 mm | - | 259 W/m² | - |
| 1777335446 | 20° C | 41% | 1017.2 hPa | 0 mm | - | 276 W/m² | - |
| 1777335143 | 19.44° C | 42% | 1017.1 hPa | 0 mm | - | 295 W/m² | - |
| 1777334841 | 19.44° C | 41% | 1017.1 hPa | 0 mm | - | 318 W/m² | - |
| 1777334539 | 19.44° C | 41% | 1017.1 hPa | 0 mm | - | 336 W/m² | - |
| 1777334235 | 19.44° C | 41% | 1016.9 hPa | 0 mm | - | 353 W/m² | - |
| 1777333934 | 19.44° C | 41% | 1017.2 hPa | 0 mm | - | 368 W/m² | - |
| 1777333632 | 19.44° C | 40% | 1016.9 hPa | 0 mm | - | 389 W/m² | - |
| 1777333328 | 19.44° C | 41% | 1016.9 hPa | 0 mm | - | 409 W/m² | - |
| 1777333026 | 19.44° C | 41% | 1016.9 hPa | 0 mm | - | 424 W/m² | - |
| 1777332724 | 19.44° C | 41% | 1017.1 hPa | 0 mm | - | 442 W/m² | - |
| 1777332420 | 20° C | 39% | 1016.9 hPa | 0 mm | - | 462 W/m² | - |
| 1777332117 | 19.44° C | 41% | 1016.9 hPa | 0 mm | - | 477 W/m² | - |
| 1777331814 | 19.44° C | 41% | 1017 hPa | 0 mm | - | 497 W/m² | - |
| 1777331511 | 19.44° C | 41% | 1017.1 hPa | 0 mm | - | 508 W/m² | - |
| 1777331209 | 18.89° C | 40% | 1017 hPa | 0 mm | - | 521 W/m² | - |
| 1777330906 | 20° C | 40% | 1017.1 hPa | 0 mm | - | 545 W/m² | - |
| 1777330603 | 20° C | 39% | 1017 hPa | 0 mm | - | 567 W/m² | - |
| 1777330300 | 20° C | 40% | 1016.9 hPa | 0 mm | - | 595 W/m² | - |
| 1777329992 | 19.44° C | 41% | 1017.4 hPa | 0 mm | - | 636 W/m² | - |
| 1777329692 | 19.44° C | 41% | 1017.5 hPa | 0 mm | - | 636 W/m² | - |
* Rain latest hour (hover to see other rain measurements)
** Current wind speed in m/s (hover to see current wind gust speed)